Location: Calais Saint-Pierre
(50.9509°N, 1.8522°E)
Time: 10:56:15
(UTC+00:00)

ALOS 2 - Pass Details

Date: 15 May 2026
Orbit: 630 x 632 km, 97.9° (Epoch: 6 June)

Event Time Altitude Azimuth Distance (km) Brightness Sun altitude
Exits shadow 22:53:59 38° 136° (SE) 964 3.1 -19.0°
Maximum altitude 22:55:28 63° 72° (ENE) 712 2.8 -19.0°
Drops below altitude 10° 22:59:50 10° 352° (N) 2,026 6.4 -19.2°
Sets 23:02:03 0° 349° (N) 2,938 7.7 -19.2°
